• In Russia
  • List of Countries
  • For 7 days
  • Water Temperature
  • Weather Map
  • Weather Widgets
  • user-avatar
    Login

    Hourly Weather Molepolole

    Today, 6 December, Friday

    Time Temperature Precipitation Wind Pressure Humidity
    00:00 +15°C° 0 mm 5 mps 665 mmHg 81%
    01:00 +15°C° 0 mm 4 mps 665 mmHg 81%
    02:00 +15°C° 0 mm 4 mps 665 mmHg 84%
    03:00 +15°C° 0 mm 4 mps 665 mmHg 82%
    04:00 +17°C° 0 mm 4 mps 665 mmHg 80%
    05:00 +16°C° 0 mm 5 mps 664 mmHg 78%
    06:00 +17°C° 0 mm 5 mps 665 mmHg 76%
    07:00 +17°C° 0 mm 5 mps 665 mmHg 73%
    08:00 +17°C° 0 mm 5 mps 666 mmHg 75%
    09:00 +17°C° 0.5 mm 5 mps 665 mmHg 77%
    10:00 +18°C° 0.5 mm 4 mps 665 mmHg 78%
    11:00 +18°C° 0.5 mm 4 mps 664 mmHg 80%
    12:00 +19°C° 0 mm 3 mps 664 mmHg 76%
    13:00 +20°C° 0 mm 2 mps 664 mmHg 71%
    14:00 +21°C° 0 mm 2 mps 664 mmHg 67%
    15:00 +21°C° 0 mm 2 mps 663 mmHg 69%
    16:00 +21°C° 0 mm 3 mps 663 mmHg 71%
    17:00 +20°C° 0 mm 4 mps 662 mmHg 73%
    18:00 +20°C° 0 mm 4 mps 662 mmHg 77%
    19:00 +19°C° 0 mm 4 mps 662 mmHg 80%
    20:00 +18°C° 0 mm 4 mps 662 mmHg 83%
    21:00 +18°C° 0.4 mm 4 mps 662 mmHg 84%
    22:00 +18°C° 0.4 mm 4 mps 662 mmHg 85%
    23:00 +18°C° 0.4 mm 4 mps 662 mmHg 86%

    Tomorrow, 7 December, Saturday

    Time Temperature Precipitation Wind Pressure Humidity
    00:00 +18°C° 0.4 mm 4 mps 662 mmHg 87%
    01:00 +18°C° 0.4 mm 4 mps 661 mmHg 88%
    02:00 +18°C° 0.4 mm 4 mps 661 mmHg 88%
    03:00 +18°C° 1.2 mm 4 mps 661 mmHg 90%
    04:00 +17°C° 1.2 mm 4 mps 661 mmHg 92%
    05:00 +17°C° 1.2 mm 3 mps 660 mmHg 94%
    06:00 +18°C° 0.7 mm 4 mps 661 mmHg 93%
    07:00 +18°C° 0.7 mm 4 mps 661 mmHg 93%
    08:00 +18°C° 0.7 mm 4 mps 662 mmHg 93%
    09:00 +18°C° 1 mm 4 mps 662 mmHg 91%
    10:00 +19°C° 1 mm 4 mps 662 mmHg 90%
    11:00 +19°C° 1 mm 4 mps 662 mmHg 88%
    12:00 +20°C° 0.3 mm 3 mps 662 mmHg 86%
    13:00 +20°C° 0.3 mm 3 mps 662 mmHg 84%
    14:00 +21°C° 0.3 mm 3 mps 662 mmHg 82%
    15:00 +21°C° 0 mm 4 mps 661 mmHg 81%
    16:00 +21°C° 0 mm 4 mps 661 mmHg 79%
    17:00 +22°C° 0 mm 4 mps 661 mmHg 78%
    18:00 +21°C° 0 mm 4 mps 661 mmHg 81%
    19:00 +20°C° 0 mm 4 mps 661 mmHg 84%
    20:00 +20°C° 0 mm 4 mps 661 mmHg 86%
    21:00 +20°C° 0 mm 3 mps 661 mmHg 88%
    22:00 +19°C° 0 mm 3 mps 661 mmHg 90%
    23:00 +19°C° 0 mm 2 mps 661 mmHg 92%

    Day after tomorrow, 8 December, Sunday

    Time Temperature Precipitation Wind Pressure Humidity
    00:00 +19°C° 0 mm 2 mps 660 mmHg 93%
    01:00 +19°C° 0 mm 2 mps 660 mmHg 94%
    02:00 +18°C° 0 mm 2 mps 660 mmHg 95%
    03:00 +19°C° 0 mm 2 mps 660 mmHg 94%
    04:00 +19°C° 0 mm 2 mps 660 mmHg 93%
    05:00 +19°C° 0 mm 2 mps 660 mmHg 92%
    06:00 +19°C° 0.1 mm 2 mps 660 mmHg 91%
    07:00 +20°C° 0.1 mm 3 mps 661 mmHg 90%
    08:00 +20°C° 0.1 mm 3 mps 661 mmHg 89%
    09:00 +22°C° 0.1 mm 3 mps 661 mmHg 82%
    10:00 +24°C° 0.1 mm 3 mps 661 mmHg 75%
    11:00 +26°C° 0.1 mm 3 mps 661 mmHg 68%
    12:00 +26°C° 0.8 mm 3 mps 661 mmHg 64%
    13:00 +27°C° 0.8 mm 3 mps 660 mmHg 61%
    14:00 +28°C° 0.8 mm 2 mps 660 mmHg 58%
    15:00 +27°C° 1.5 mm 2 mps 659 mmHg 59%
    16:00 +27°C° 1.5 mm 2 mps 659 mmHg 60%
    17:00 +27°C° 1.5 mm 2 mps 659 mmHg 60%
    18:00 +26°C° 1 mm 2 mps 659 mmHg 66%
    19:00 +25°C° 1 mm 2 mps 659 mmHg 72%
    20:00 +24°C° 1 mm 2 mps 659 mmHg 78%
    21:00 +24°C° 0.1 mm 2 mps 659 mmHg 79%
    22:00 +23°C° 0.1 mm 2 mps 660 mmHg 79%
    23:00 +23°C° 0.1 mm 2 mps 660 mmHg 80%

    9 December, Monday

    Time Temperature Precipitation Wind Pressure Humidity
    00:00 +22°C° 0.6 mm 3 mps 659 mmHg 81%
    01:00 +21°C° 0.6 mm 3 mps 659 mmHg 83%
    02:00 +21°C° 0.6 mm 3 mps 658 mmHg 84%
    03:00 +21°C° 0.3 mm 3 mps 658 mmHg 85%
    04:00 +21°C° 0.3 mm 4 mps 658 mmHg 85%
    05:00 +20°C° 0.3 mm 5 mps 658 mmHg 86%
    06:00 +22°C° 1.1 mm 5 mps 659 mmHg 81%
    07:00 +23°C° 1.1 mm 5 mps 660 mmHg 76%
    08:00 +24°C° 1.1 mm 6 mps 660 mmHg 71%
    09:00 +26°C° 1 mm 5 mps 660 mmHg 63%
    10:00 +28°C° 1 mm 5 mps 660 mmHg 56%
    11:00 +29°C° 1 mm 4 mps 661 mmHg 48%
    12:00 +28°C° 0.5 mm 4 mps 660 mmHg 54%
    13:00 +27°C° 0.5 mm 3 mps 659 mmHg 59%
    14:00 +26°C° 0.5 mm 2 mps 658 mmHg 64%
    15:00 +26°C° 0.1 mm 2 mps 658 mmHg 61%
    16:00 +26°C° 0.1 mm 3 mps 658 mmHg 59%
    17:00 +27°C° 0.1 mm 3 mps 658 mmHg 56%
    18:00 +26°C° 0 mm 3 mps 658 mmHg 59%
    19:00 +25°C° 0 mm 3 mps 659 mmHg 63%
    20:00 +24°C° 0 mm 3 mps 659 mmHg 66%
    21:00 +24°C° 0 mm 3 mps 660 mmHg 68%
    22:00 +22°C° 0 mm 3 mps 660 mmHg 70%
    23:00 +21°C° 0 mm 2 mps 660 mmHg 72%

    10 December, Tuesday

    Time Temperature Precipitation Wind Pressure Humidity
    00:00 +21°C° 0 mm 2 mps 660 mmHg 74%
    01:00 +20°C° 0 mm 2 mps 660 mmHg 76%
    02:00 +20°C° 0 mm 2 mps 659 mmHg 78%
    03:00 +19°C° 0 mm 2 mps 659 mmHg 77%
    04:00 +20°C° 0 mm 1 mps 659 mmHg 76%
    05:00 +20°C° 0 mm 1 mps 659 mmHg 75%
    06:00 +21°C° 0 mm 1 mps 660 mmHg 71%
    07:00 +22°C° 0 mm 1 mps 661 mmHg 66%
    08:00 +23°C° 0 mm 1 mps 661 mmHg 61%
    09:00 +25°C° 0 mm 1 mps 662 mmHg 53%
    10:00 +27°C° 0 mm 1 mps 662 mmHg 44%
    11:00 +27°C° 0 mm 0 mps 662 mmHg 36%
    12:00 +30°C° 0 mm 2 mps 662 mmHg 32%
    13:00 +30°C° 0 mm 3 mps 662 mmHg 28%
    14:00 +32°C° 0 mm 4 mps 661 mmHg 24%
    15:00 +32°C° 0 mm 4 mps 661 mmHg 24%
    16:00 +32°C° 0 mm 5 mps 660 mmHg 24%
    17:00 +32°C° 0 mm 5 mps 660 mmHg 23%
    18:00 +29°C° 0 mm 4 mps 660 mmHg 26%
    19:00 +28°C° 0 mm 3 mps 660 mmHg 29%
    20:00 +27°C° 0 mm 2 mps 660 mmHg 31%
    21:00 +26°C° 0 mm 2 mps 660 mmHg 33%
    22:00 +25°C° 0 mm 2 mps 661 mmHg 34%
    23:00 +25°C° 0 mm 2 mps 661 mmHg 35%

    11 December, Wednesday

    Time Temperature Precipitation Wind Pressure Humidity
    00:00 +24°C° 0 mm 2 mps 661 mmHg 35%
    01:00 +24°C° 0 mm 2 mps 660 mmHg 35%
    02:00 +23°C° 0 mm 2 mps 660 mmHg 35%
    03:00 +23°C° 0 mm 2 mps 660 mmHg 36%
    04:00 +21°C° 0 mm 2 mps 660 mmHg 36%
    05:00 +20°C° 0 mm 2 mps 660 mmHg 36%
    06:00 +23°C° 0 mm 2 mps 660 mmHg 35%
    07:00 +24°C° 0 mm 2 mps 661 mmHg 34%
    08:00 +25°C° 0 mm 1 mps 661 mmHg 33%
    09:00 +27°C° 0 mm 1 mps 662 mmHg 29%
    10:00 +29°C° 0 mm 1 mps 662 mmHg 26%
    11:00 +29°C° 0 mm 0 mps 663 mmHg 22%
    12:00 +32°C° 0 mm 1 mps 662 mmHg 21%
    13:00 +32°C° 0 mm 2 mps 662 mmHg 20%
    14:00 +34°C° 0 mm 3 mps 661 mmHg 18%
    15:00 +34°C° 0 mm 3 mps 661 mmHg 18%
    16:00 +34°C° 0 mm 3 mps 661 mmHg 18%
    17:00 +34°C° 0 mm 3 mps 661 mmHg 17%
    18:00 +33°C° 0 mm 3 mps 661 mmHg 20%
    19:00 +30°C° 0 mm 2 mps 661 mmHg 24%
    20:00 +28°C° 0 mm 1 mps 660 mmHg 27%
    21:00 +28°C° 0 mm 1 mps 661 mmHg 28%
    22:00 +27°C° 0 mm 1 mps 661 mmHg 29%
    23:00 +27°C° 0 mm 1 mps 661 mmHg 31%
    Show more